Location: Central Coast
(33.3208°S, 151.2336°E)
Time: 17:29:14
(UTC+11:00)

Envisat - Pass Details

Date: 09 October 2017
Orbit: 764 x 766 km, 98.2° (Epoch: 11 December)

Event Time Altitude Azimuth Distance (km) Brightness Sun altitude
Rises 22:54:22 0° 192° (SSW) 3,262 6.9 -42.7°
Reaches altitude 10° 22:58:05 10° 220° (SW) 2,326 6.1 -43.2°
Enters shadow 22:59:22 12° 235° (SW) 2,175 5.9 -43.3°
